Weather History for K1II - February, 2014

Change the Weather History Date:

Saturday, February 15, 2014

  Actual Average (KGEZ) Record (KGEZ)
Temperature  
Mean Temperature 22 °F 31 °F  
Max Temperature 30 °F 40 °F 64 °F (2005)
Min Temperature 14 °F 23 °F 1 °F (2007)
Degree Days  
Heating Degree Days 43 34  
Month to date heating degree days 523  
Since 1 July heating degree days 3752  
Cooling Degree Days 0 0  
Month to date cooling degree days 0  
Year to date cooling degree days 0  
Moisture  
Dew Point 14 °F    
Average Humidity 70    
Maximum Humidity 93    
Minimum Humidity 51    
Precipitation  
Precipitation 0.00 in 0.08 in 0.38 in (2003)
Month to date precipitation 1.29  
Year to date precipitation 3.68  
Sea Level Pressure  
Sea Level Pressure 30.05 in    
Wind  
Wind Speed 6 mph (West)    
Max Wind Speed 13 mph    
Max Gust Speed 17 mph    
Visibility 9 miles    
Events Snow    
T = Trace of Precipitation, MM = Missing Value Source: NWS Daily Summary

Daily Weather History Graph

Daily Weather History Graph

Search for Another Location

Airport or City:

Trip Planner

Search our weather history database for the weather conditions in past years. The results will help you decide how hot, cold, wet, or windy it might be!

Date:

Astronomy

Feb. 15, 2014 Rise Set
Actual Time 7:35 AM EST 6:21 PM EST
Civil Twilight 7:08 AM EST 6:48 PM EST
Nautical Twilight 6:37 AM EST 7:19 PM EST
Astronomical Twilight 6:06 AM EST 7:51 PM EST
Moon 7:19 PM EST (2/15) 7:35 AM EST (2/15)
Length of Visible Light 11h 40m
Length of Day
10h 45m
Full, 100% of the Moon is Illuminated
Feb 15
Full
Feb 22
Last Quarter
Mar 1
New
Mar 8
First Quarter
Mar 16
Full

Hourly Weather History & Observations

Time (EST) Temp. Windchill Dew Point Humidity Pressure Visibility Wind Dir Wind Speed Gust Speed Precip Events Conditions
12:15 AM 19.4 °F 7.9 °F 14.0 °F 80% 29.88 in 10.0 mi NW 10.4 mph - N/A   Scattered Clouds
12:35 AM 17.6 °F 6.4 °F 12.2 °F 79% 29.88 in 10.0 mi NW 9.2 mph - N/A   Clear
12:55 AM 17.6 °F 7.3 °F 12.2 °F 79% 29.88 in 10.0 mi NW 8.1 mph - N/A   Clear
1:15 AM 17.6 °F 6.4 °F 12.2 °F 79% 29.90 in 10.0 mi NW 9.2 mph - N/A   Scattered Clouds
1:35 AM 17.6 °F 6.4 °F 12.2 °F 79% 29.90 in 10.0 mi WNW 9.2 mph - N/A   Mostly Cloudy
1:55 AM 17.6 °F 4.3 °F 12.2 °F 79% 29.91 in 10.0 mi WNW 12.7 mph 17.3 mph N/A   Overcast
2:15 AM 17.6 °F 5.7 °F 12.2 °F 79% 29.92 in 10.0 mi WNW 10.4 mph - N/A   Overcast
2:35 AM 17.6 °F 5.7 °F 12.2 °F 79% 29.92 in 10.0 mi WNW 10.4 mph - N/A   Overcast
2:55 AM 19.4 °F 8.6 °F 12.2 °F 74% 29.92 in 10.0 mi WNW 9.2 mph - N/A   Overcast
3:15 AM 19.4 °F 9.5 °F 12.2 °F 74% 29.93 in 10.0 mi WNW 8.1 mph - N/A   Overcast
3:35 AM 19.4 °F 9.5 °F 12.2 °F 74% 29.93 in 10.0 mi WNW 8.1 mph - N/A   Overcast
3:55 AM 19.4 °F 9.5 °F 12.2 °F 74% 29.94 in 10.0 mi West 8.1 mph - N/A   Overcast
4:15 AM 19.4 °F 11.5 °F 12.2 °F 74% 29.96 in 10.0 mi WNW 5.8 mph - N/A   Overcast
4:35 AM 19.4 °F 9.5 °F 12.2 °F 74% 29.99 in 10.0 mi WNW 8.1 mph - N/A   Overcast
4:55 AM 19.4 °F 8.6 °F 12.2 °F 74% 30.00 in 10.0 mi WNW 9.2 mph - N/A   Overcast
5:15 AM 19.4 °F 10.4 °F 12.2 °F 74% 30.01 in 10.0 mi WNW 6.9 mph - N/A   Overcast
5:35 AM 19.4 °F 11.5 °F 12.2 °F 74% 30.02 in 10.0 mi WNW 5.8 mph - N/A   Overcast
5:55 AM 19.4 °F 10.4 °F 12.2 °F 74% 30.03 in 10.0 mi NW 6.9 mph - N/A   Overcast
6:15 AM 17.6 °F 12.3 °F 12.2 °F 79% 30.05 in 10.0 mi NW 3.5 mph - N/A Snow Light Snow
6:35 AM 17.6 °F 10.7 °F 12.2 °F 79% 30.05 in 7.0 mi WNW 4.6 mph - N/A Snow Light Snow
6:55 AM 17.6 °F 9.3 °F 12.2 °F 79% 30.05 in 10.0 mi WNW 5.8 mph - N/A   Overcast
7:15 AM 15.8 °F 7.2 °F 10.4 °F 79% 30.05 in 10.0 mi NW 5.8 mph - N/A   Overcast
7:35 AM 14.0 °F 5.1 °F 10.4 °F 86% 30.06 in 10.0 mi WNW 5.8 mph - N/A   Scattered Clouds
7:55 AM 14.0 °F 8.2 °F 8.6 °F 79% 30.07 in 10.0 mi NW 3.5 mph - N/A   Scattered Clouds
8:15 AM 14.0 °F 6.5 °F 8.6 °F 79% 30.08 in 10.0 mi NW 4.6 mph - N/A   Scattered Clouds
8:35 AM 14.0 °F - 8.6 °F 79% 30.09 in 10.0 mi Calm Calm - N/A   Clear
8:55 AM 14.0 °F 8.2 °F 8.6 °F 79% 30.09 in 10.0 mi West 3.5 mph - N/A   Clear
9:15 AM 14.0 °F 8.2 °F 8.6 °F 79% 30.10 in 10.0 mi West 3.5 mph - N/A   Clear
9:35 AM 17.6 °F - 8.6 °F 68% 30.10 in 10.0 mi Calm Calm - N/A   Clear
9:55 AM 17.6 °F - 10.4 °F 73% 30.10 in 10.0 mi Calm Calm - N/A   Clear
10:15 AM 17.6 °F - 10.4 °F 73% 30.11 in 10.0 mi Calm Calm - N/A   Clear
10:35 AM 19.4 °F 14.3 °F 10.4 °F 68% 30.12 in 10.0 mi North 3.5 mph - N/A   Clear
10:55 AM 21.2 °F - 12.2 °F 68% 30.12 in 10.0 mi Calm Calm - N/A   Clear
11:15 AM 23.0 °F - 12.2 °F 63% 30.12 in 10.0 mi Calm Calm - N/A   Clear
11:35 AM 26.6 °F - 14.0 °F 59% 30.13 in 10.0 mi Calm Calm - N/A   Clear
11:55 AM 26.6 °F - 14.0 °F 59% 30.13 in 10.0 mi Calm Calm - N/A   Scattered Clouds
12:15 PM 28.4 °F 24.6 °F 15.8 °F 59% 30.13 in 10.0 mi North 3.5 mph - N/A   Scattered Clouds
12:35 PM 28.4 °F - 14.0 °F 55% 30.13 in 10.0 mi Calm Calm - N/A   Scattered Clouds
12:55 PM 30.2 °F - 14.0 °F 51% 30.13 in 10.0 mi Calm Calm - N/A   Mostly Cloudy
1:15 PM 28.4 °F 23.3 °F 14.0 °F 55% 30.12 in 10.0 mi West 4.6 mph - N/A   Scattered Clouds
1:35 PM 30.2 °F 26.7 °F 14.0 °F 51% 30.11 in 10.0 mi East 3.5 mph - N/A   Clear
1:55 PM 30.2 °F 24.3 °F 15.8 °F 55% 30.11 in 10.0 mi East 5.8 mph - N/A   Clear
2:15 PM 30.2 °F - 14.0 °F 51% 30.09 in 10.0 mi Calm Calm - N/A   Clear
2:35 PM 28.4 °F 24.6 °F 15.8 °F 59% 30.09 in 10.0 mi East 3.5 mph - N/A   Clear
2:55 PM 30.2 °F - 15.8 °F 55% 30.10 in 10.0 mi Calm Calm - N/A   Clear
3:15 PM 28.4 °F 23.3 °F 15.8 °F 59% 30.09 in 10.0 mi ENE 4.6 mph - N/A   Clear
3:35 PM 28.4 °F - 15.8 °F 59% 30.09 in 10.0 mi Calm Calm - N/A   Clear
3:55 PM 28.4 °F 22.2 °F 14.0 °F 55% 30.10 in 10.0 mi SW 5.8 mph - N/A   Clear
4:15 PM 28.4 °F 20.4 °F 14.0 °F 55% 30.10 in 10.0 mi West 8.1 mph - N/A   Clear
4:35 PM 28.4 °F 21.2 °F 14.0 °F 55% 30.10 in 10.0 mi WSW 6.9 mph - N/A   Clear
4:55 PM 28.4 °F 21.2 °F 14.0 °F 55% 30.10 in 10.0 mi WSW 6.9 mph - N/A   Clear
5:15 PM 28.4 °F 20.4 °F 14.0 °F 55% 30.10 in 10.0 mi SW 8.1 mph - N/A   Clear
5:35 PM 28.4 °F 22.2 °F 14.0 °F 55% 30.09 in 10.0 mi WSW 5.8 mph - N/A   Scattered Clouds
5:55 PM 28.4 °F 23.3 °F 14.0 °F 55% 30.08 in 10.0 mi SW 4.6 mph - N/A   Mostly Cloudy
6:15 PM 26.6 °F 21.2 °F 14.0 °F 59% 30.08 in 10.0 mi SW 4.6 mph - N/A   Overcast
6:35 PM 26.6 °F 18.2 °F 14.0 °F 59% 30.08 in 10.0 mi SSW 8.1 mph - N/A   Overcast
6:55 PM 26.6 °F 19.1 °F 14.0 °F 59% 30.08 in 10.0 mi SSW 6.9 mph - N/A   Overcast
7:15 PM 26.6 °F 20.0 °F 14.0 °F 59% 30.08 in 10.0 mi SSW 5.8 mph - N/A   Overcast
7:35 PM 24.8 °F 19.1 °F 14.0 °F 64% 30.07 in 10.0 mi South 4.6 mph - N/A   Mostly Cloudy
7:55 PM 24.8 °F 19.1 °F 14.0 °F 64% 30.06 in 10.0 mi SSE 4.6 mph - N/A   Mostly Cloudy
8:15 PM 24.8 °F 16.9 °F 15.8 °F 69% 30.06 in 10.0 mi South 6.9 mph - N/A   Mostly Cloudy
8:35 PM 24.8 °F 19.1 °F 15.8 °F 69% 30.05 in 10.0 mi SSE 4.6 mph - N/A   Overcast
8:55 PM 24.8 °F 19.1 °F 15.8 °F 69% 30.06 in 10.0 mi South 4.6 mph - N/A   Overcast
9:15 PM 26.6 °F 19.1 °F 17.6 °F 69% 30.06 in 10.0 mi South 6.9 mph - N/A   Overcast
9:35 PM 26.6 °F 20.0 °F 17.6 °F 69% 30.07 in 7.0 mi SSW 5.8 mph - N/A Snow Light Snow
9:55 PM 24.8 °F 16.9 °F 19.4 °F 80% 30.07 in 1.8 mi SSW 6.9 mph - N/A Snow Light Snow
10:15 PM 24.8 °F 19.1 °F 21.2 °F 86% 30.06 in 1.2 mi SSW 4.6 mph - N/A Snow Light Snow
10:35 PM 24.8 °F 19.1 °F 21.2 °F 86% 30.06 in 1.8 mi South 4.6 mph - N/A Snow Light Snow
10:55 PM 24.8 °F 20.5 °F 21.2 °F 86% 30.05 in 1.5 mi South 3.5 mph - N/A Snow Light Snow
11:15 PM 24.8 °F 20.5 °F 21.2 °F 86% 30.04 in 1.0 mi SSE 3.5 mph - N/A Snow Light Snow
11:35 PM 23.0 °F - 21.2 °F 93% 30.03 in 0.8 mi Calm Calm - N/A Snow Light Snow
11:55 PM 23.0 °F 17.0 °F 21.2 °F 93% 30.02 in 1.2 mi SE 4.6 mph - N/A Snow Light Snow